Brookings, OR

1:02 AM PST on November 19, 2017 (GMT -0800)
Brookings State

Weather History for KBOK - August, 2013

Change the Weather History Date:

Tuesday, August 6, 2013

  Actual Average Record
Temperature  
Mean Temperature 52 °F -  
Max Temperature 54 °F 66 °F 91 °F (2015)
Min Temperature 50 °F 52 °F 45 °F (1931)
Degree Days  
Heating Degree Days 13    
Growing Degree Days 2 (Base 50)    
Moisture  
Dew Point 51 °F    
Average Humidity 99    
Maximum Humidity 100    
Minimum Humidity 86    
Precipitation  
Precipitation 0.00 in - - ()
Sea Level Pressure  
Sea Level Pressure 30.03 in    
Wind  
Wind Speed 2 mph (South)    
Max Wind Speed 7 mph    
Max Gust Speed -    
Visibility 2 miles    
Events Fog    
Averages and records for this station are not official NWS values.
T = Trace of Precipitation, MM = Missing Value Source: NWS Daily Summary

Daily Weather History Graph

Daily Weather History Graph

Search for Another Location

Airport or City:

Trip Planner

Search our weather history database for the weather conditions in past years. The results will help you decide how hot, cold, wet, or windy it might be!

Date:

Astronomy

Aug. 06, 2013 Rise Set
Actual Time 6:15 AM PDT 8:29 PM PDT
Civil Twilight 5:44 AM PDT 9:00 PM PDT
Nautical Twilight 5:06 AM PDT 9:38 PM PDT
Astronomical Twilight 4:24 AM PDT 10:20 PM PDT
Moon 6:13 AM PDT (8/6) 8:05 PM PDT (8/6)
Length of Visible Light 15h 15m
Length of Day
14h 13m
Waning Crescent, 0% of the Moon is Illuminated
Aug 6
Waning Crescent
Aug 6
New
Aug 14
First Quarter
Aug 20
Full
Aug 28
Last Quarter

Hourly Weather History & Observations

Time (PDT) Temp. Dew Point Humidity Pressure Visibility Wind Dir Wind Speed Gust Speed Precip Events Conditions
12:09 AM 51.8 °F 51.8 °F 100% 30.00 in 0.2 mi Calm Calm - N/A Fog Fog
12:16 AM 51.8 °F 51.8 °F 100% 30.00 in 0.2 mi Calm Calm - N/A Fog Fog
12:56 AM 50.9 °F 50.9 °F 100% 30.01 in 0.2 mi Calm Calm - N/A Fog Fog
1:56 AM 50.0 °F 50.0 °F 100% 29.99 in 0.2 mi WNW 3.5 mph - N/A Fog Fog
2:56 AM 50.0 °F 50.0 °F 100% 29.99 in 0.2 mi Calm Calm - N/A Fog Fog
3:13 AM 50.0 °F 50.0 °F 100% 29.98 in 0.2 mi Calm Calm - N/A Fog Fog
3:38 AM 50.0 °F 50.0 °F 100% 29.98 in 0.2 mi Calm Calm - N/A Fog Fog
3:56 AM 50.0 °F 50.0 °F 100% 29.99 in 0.2 mi Calm Calm - N/A Fog Fog
4:24 AM 50.0 °F 50.0 °F 100% 29.97 in 0.2 mi Calm Calm - N/A Fog Fog
4:56 AM 50.0 °F 50.0 °F 100% 29.98 in 0.2 mi Calm Calm - N/A Fog Fog
5:56 AM 50.0 °F 50.0 °F 100% 29.98 in 0.2 mi SSE 3.5 mph - N/A Fog Fog
6:09 AM 50.0 °F 50.0 °F 100% 29.98 in 0.2 mi Calm Calm - N/A Fog Fog
6:56 AM 50.0 °F 50.0 °F 100% 29.99 in 0.2 mi SSE 3.5 mph - N/A Fog Fog
7:21 AM 50.0 °F 50.0 °F 100% 30.00 in 0.2 mi SE 3.5 mph - N/A Fog Fog
7:36 AM 50.0 °F 50.0 °F 100% 30.00 in 0.2 mi Calm Calm - N/A Fog Fog
7:56 AM 50.9 °F 50.9 °F 100% 30.01 in 0.2 mi SSW 4.6 mph - N/A Fog Fog
8:12 AM 51.8 °F 51.8 °F 100% 30.00 in 0.8 mi Calm Calm - N/A   Overcast
8:18 AM 51.8 °F 51.8 °F 100% 30.01 in 0.2 mi South 3.5 mph - N/A Fog Fog
8:27 AM 51.8 °F 51.8 °F 100% 30.01 in 0.2 mi South 4.6 mph - N/A Fog Fog
8:38 AM 51.8 °F 51.8 °F 100% 30.01 in 0.2 mi South 3.5 mph - N/A Fog Fog
8:56 AM 50.9 °F 50.9 °F 100% 30.02 in 0.2 mi Calm Calm - N/A Fog Fog
9:56 AM 50.9 °F 50.9 °F 100% 30.03 in 0.2 mi South 3.5 mph - N/A Fog Fog
10:56 AM 50.9 °F 50.9 °F 100% 30.04 in 0.2 mi SSE 3.5 mph - N/A Fog Fog
11:23 AM 51.8 °F 51.8 °F 100% 30.04 in 0.5 mi Variable 4.6 mph - N/A Fog Fog
11:36 AM 51.8 °F 51.8 °F 100% 30.04 in 0.2 mi Variable 5.8 mph - N/A Fog Fog
11:56 AM 50.9 °F 50.9 °F 100% 30.05 in 0.2 mi Variable 4.6 mph - N/A Fog Fog
12:11 PM 51.8 °F 51.8 °F 100% 30.04 in 0.8 mi Variable 4.6 mph - N/A   Overcast
12:28 PM 51.8 °F 51.8 °F 100% 30.04 in 1.2 mi SE 4.6 mph - N/A   Overcast
12:30 PM 51.8 °F 51.8 °F 100% 30.04 in 2.0 mi Variable 3.5 mph - N/A   Overcast
12:38 PM 53.6 °F 53.6 °F 100% 30.04 in 5.0 mi South 6.9 mph - N/A   Overcast
12:56 PM 52.9 °F 52.9 °F 100% 30.04 in 2.0 mi Variable 4.6 mph - N/A   Overcast
1:04 PM 53.6 °F 51.8 °F 94% 30.04 in 1.8 mi South 5.8 mph - N/A   Overcast
1:27 PM 53.6 °F 51.8 °F 94% 30.04 in 1.0 mi South 4.6 mph - N/A   Overcast
1:36 PM 53.6 °F 51.8 °F 94% 30.04 in 1.5 mi South 5.8 mph - N/A   Overcast
1:56 PM 52.9 °F 52.0 °F 97% 30.05 in 2.0 mi SSE 6.9 mph - N/A   Overcast
2:14 PM 53.6 °F 51.8 °F 94% 30.04 in 3.0 mi Variable 5.8 mph - N/A   Overcast
2:37 PM 53.6 °F 51.8 °F 94% 30.04 in 7.0 mi South 5.8 mph - N/A   Overcast
2:56 PM 52.9 °F 50.9 °F 93% 30.05 in 9.0 mi SSW 5.8 mph - N/A   Overcast
3:56 PM 54.9 °F 50.9 °F 86% 30.04 in 10.0 mi Variable 4.6 mph - N/A   Overcast
4:56 PM 54.9 °F 50.9 °F 86% 30.04 in 10.0 mi South 4.6 mph - N/A   Overcast
5:26 PM 53.6 °F 51.8 °F 94% 30.03 in 6.0 mi SW 4.6 mph - N/A   Overcast
5:56 PM 52.9 °F 50.9 °F 93% 30.03 in 6.0 mi Variable 3.5 mph - N/A   Overcast
6:31 PM 51.8 °F 51.8 °F 100% 30.04 in 1.8 mi South 4.6 mph - N/A   Overcast
6:34 PM 51.8 °F 51.8 °F 100% 30.04 in 1.0 mi Variable 4.6 mph - N/A   Overcast
6:40 PM 51.8 °F 51.8 °F 100% 30.04 in 0.5 mi South 4.6 mph - N/A Fog Fog
6:56 PM 50.9 °F 50.9 °F 100% 30.05 in 1.0 mi SSE 6.9 mph - N/A   Overcast
7:00 PM 51.8 °F 51.8 °F 100% 30.04 in 0.5 mi South 4.6 mph - N/A Fog Fog
7:17 PM 51.8 °F 50.0 °F 94% 30.04 in 1.5 mi East 3.5 mph - N/A   Overcast
7:19 PM 51.8 °F 50.0 °F 94% 30.04 in 5.0 mi Calm Calm - N/A   Overcast
7:31 PM 51.8 °F 50.0 °F 94% 30.03 in 1.8 mi NE 5.8 mph - N/A   Overcast
7:35 PM 51.8 °F 51.8 °F 100% 30.03 in 1.0 mi Calm Calm - N/A   Overcast
7:41 PM 51.8 °F 51.8 °F 100% 30.02 in 0.5 mi Variable 3.5 mph - N/A Fog Fog
7:56 PM 50.9 °F 50.9 °F 100% 30.02 in 0.5 mi Calm Calm - N/A Fog Fog
8:16 PM 51.8 °F 51.8 °F 100% 30.02 in 1.0 mi Variable 3.5 mph - N/A   Overcast
8:36 PM 51.8 °F 51.8 °F 100% 30.03 in 0.5 mi Variable 4.6 mph - N/A Fog Fog
8:46 PM 51.8 °F 51.8 °F 100% 30.04 in 0.2 mi SSE 5.8 mph - N/A Fog Fog
8:56 PM 50.9 °F 50.9 °F 100% 30.05 in 0.2 mi Variable 3.5 mph - N/A Fog Fog
9:07 PM 51.8 °F 51.8 °F 100% 30.05 in 0.2 mi SSE 4.6 mph - N/A Fog Fog
9:42 PM 51.8 °F 51.8 °F 100% 30.04 in 0.2 mi Calm Calm - N/A Fog Fog
9:56 PM 50.9 °F 50.9 °F 100% 30.06 in 0.2 mi Variable 4.6 mph - N/A Fog Fog
10:15 PM 51.8 °F 51.8 °F 100% 30.05 in 0.8 mi SSE 6.9 mph - N/A   Overcast
10:29 PM 51.8 °F 51.8 °F 100% 30.05 in 0.5 mi Calm Calm - N/A Fog Fog
10:36 PM 51.8 °F 51.8 °F 100% 30.05 in 1.0 mi SE 3.5 mph - N/A   Overcast
10:41 PM 51.8 °F 51.8 °F 100% 30.05 in 1.5 mi Calm Calm - N/A   Overcast
10:56 PM 52.0 °F 52.0 °F 100% 30.05 in 5.0 mi SSW 3.5 mph - N/A   Overcast
11:21 PM 51.8 °F 51.8 °F 100% 30.05 in 2.5 mi Calm Calm - N/A   Overcast
11:28 PM 51.8 °F 51.8 °F 100% 30.05 in 4.0 mi Calm Calm - N/A   Overcast
11:37 PM 51.8 °F 51.8 °F 100% 30.05 in 1.8 mi NW 3.5 mph - N/A   Overcast
11:41 PM 51.8 °F 51.8 °F 100% 30.05 in 1.0 mi Calm Calm - N/A   Overcast
11:56 PM 50.9 °F 50.9 °F 100% 30.05 in 1.2 mi Variable 3.5 mph - N/A   Overcast